Regional Weather Roundup
Issued by NWS

Home | Current Version | Previous Version | Graphics & Text | Print | Product List | Glossary On
Versions: 1 2 3 4 5 6 7 8 9 10 11 12 13 14 15 16 17 18 19 20 21 22 23 24 25 26 27 28 29 30 31 32 33 34 35 36 37 38 39 40 41 42 43 44 45 46 47 48 49 50
000
ASUS43 KMKX 310421
RWRWI

WISCONSIN REGIONAL WEATHER ROUNDUP
NATIONAL WEATHER SERVICE MILWAUKEE/SULLIVAN WI
1100 PM CDT THU OCT 30 2014

NOTE: "FAIR" INDICATES FEW OR NO CLOUDS BELOW 12,000 FEET WITH NO
SIGNIFICANT WEATHER AND/OR OBSTRUCTIONS TO VISIBILITY.

WIZ001-002-006>008-014>016-023>028-310500-
NORTHWEST WISCONSIN

CITY           SKY/WX    TMP DP  RH WIND       PRES   REMARKS
SUPERIOR ARPT  FAIR      31  19  62 N14G23    30.33R WCI  21
ASHLAND        LGT SNOW  31  29  92 N21G29    30.27R FOG     WCI  18
HAYWARD        CLOUDY    31  20  63 N10G21    30.25R WCI  22
SIREN          PTCLDY    31  17  57 N13G22    30.32R WCI  21
CUMBERLAND     PTCLDY    30  18  59 N20G31    30.26R WCI  18
RICE LAKE      PTCLDY    32  18  57 N16G29    30.26R WCI  21
CHETEK         PTCLDY    32  19  58 NW14G24   30.24R WCI  22
LADYSMITH      CLOUDY    33  25  74 NW23      30.20R WCI  20
EAU CLAIRE     CLOUDY    35  19  52 N12G26    30.22R WCI  27
MENOMONIE      CLOUDY    36  18  47 NW26G32   30.24R WCI  24
NEW RICHMOND   CLEAR     32  12  44 N26       30.30R WCI  18
OSCEOLA        CLEAR     32  12  43 N21G26    30.34R WCI  20
$$

WIZ003>005-009-010-017-018-310500-
NORTH CENTRAL WISCONSIN

CITY           SKY/WX    TMP DP  RH WIND       PRES   REMARKS
MANITOWISH WTR SNOW      32  32 100 N7        30.09R VSB 1/2 WCI  25
ARBOR VITAE    LGT SNOW  34  32  94 N10G16    30.07R WCI  26
WOODRUFF       LGT SNOW  34  32  94 N10G16    30.07R WCI  26
RHINELANDER    LGT SNOW  32  31  96 N10G17    30.06S VSB 3/4 WCI  24
EAGLE RIVER    LGT SNOW  32  32  99 NW10      30.03S VSB 3/4 WCI  24
LAND O LAKES   LGT SNOW  32  31  95 N6        30.05R WCI  27
PHILLIPS       CLOUDY    31  26  81 NW14      30.13R WCI  21
TOMAHAWK       CLOUDY    32  28  85 NW13G23   30.09R WCI  23
MEDFORD        CLOUDY    32  29  87 NW17G24   30.12R WCI  21
MERRILL        CLOUDY    35  29  80 N15G24    30.08R WCI  25
$$

WIZ029-030-035-036-043>047-310500-
CENTRAL WISCONSIN

CITY           SKY/WX    TMP DP  RH WIND       PRES   REMARKS
WAUSAU         CLOUDY    37  30  75 NW12G25   30.06R WCI  29
MOSINEE        MOCLDY    36  32  87 NW15G22   30.08R WCI  26
MARSHFIELD     FLURRIES  35  30  82 N21G36    30.11R WCI  24
STEVENS POINT  CLOUDY    38  30  72 NW12G24   30.07R WCI  31
WAUPACA        CLEAR     43  32  64 W10G16    30.05S
WAUTOMA        PTCLDY    42  32  68 NW14      30.07S
WISC RAPIDS    CLOUDY    38  33  82 NW13G20   30.10R WCI  30
CAMP DOUGLAS   CLOUDY    41  34  75 NW10      30.11S
$$

WIZ011>013-019>022-031-037>040-048>050-310500-
NORTHEAST WISCONSIN

CITY           SKY/WX    TMP DP  RH WIND       PRES   REMARKS
ANTIGO         CLOUDY    35  31  88 NW15G21   30.04R WCI  25
SHAWANO        MOCLDY    42  31  65 NW13G18   30.03S
OCONTO         CLOUDY    41  32  71 NW7       30.00F
STURGEON BAY   CLOUDY    43  30  61 NW15      29.98F
GREEN BAY      CLOUDY    44  33  65 NW10      30.02S
MANITOWOC      CLOUDY    45  34  65 NW10      30.00S
APPLETON       MOCLDY    43  32  65 NW10      30.03S
CLINTONVILLE   PTCLDY    41  30  65 NW9       30.03S
OSHKOSH        CLOUDY    44  34  67 W10       30.03S
$$

WIZ032>034-041-042-053>061-310500-
SOUTHWEST WISCONSIN

CITY           SKY/WX    TMP DP  RH WIND       PRES   REMARKS
LA CROSSE      CLOUDY    44  29  55 N24G35    30.16R
SPARTA         CLOUDY    42  31  64 NW12G18   30.14S
VIROQUA        CLOUDY    41  31  68 NW13G21   30.12F
BOSCOBEL       CLOUDY    46  31  55 N13G23    30.14R
PRAIRIE DU CHI CLOUDY    46  31  56 NW14G30   30.15R
PLATTEVILLE    CLOUDY    46  39  77 NW16      30.11S
$$

WIZ056-057-062-063-064-067-068-310500-
SOUTH CENTRAL WISCONSIN

CITY           SKY/WX    TMP DP  RH WIND       PRES   REMARKS
REEDSBURG      CLOUDY    42  31  64 NW9G17    30.10R
BARABOO/DELLS  CLOUDY    42  31  62 NW8G17    30.09S
LONE ROCK      CLOUDY    49  32  52 NW17G24   30.12R
MINERAL POINT  CLOUDY    45  36  70 NW10G17   30.09S
MADISON        CLOUDY    47  36  65 NW13G20   30.06S
MIDDLETON      CLOUDY    47  36  65 NW15      30.07S
WATERTOWN      LGT RAIN  44  38  79 NW9       30.04S
MONROE         CLOUDY    45  37  76 W12       30.07S
JANESVILLE     CLOUDY    45  36  70 W6        30.05S
$$

WIZ051-052-058>065-066-070>072-310500-
SOUTHEAST WISCONSIN

CITY           SKY/WX    TMP DP  RH WIND       PRES   REMARKS
MILWAUKEE      LGT RAIN  48  36  63 W9        30.02F
WAUKESHA       DRIZZLE   43  36  75 W10       30.03S
MILWAUKEE/TIMM CLOUDY    45  34  65 W9        30.03S
RACINE         LGT RAIN  47  35  63 W8        30.04S
BURLINGTON     DRIZZLE   44  36  73 W6        30.03F
KENOSHA        CLOUDY    46  37  71 W9        30.03F
FOND DU LAC    CLOUDY    44  32  62 NW14      30.04R
SHEBOYGAN      CLOUDY    45  33  63 NW16G22   30.01S
WEST BEND      LGT RAIN  43  34  70 NW15G21   30.02S
JUNEAU         CLOUDY    43  32  64 NW14G22   30.05S
$$

LSZ147-162-310500-
LAKE SUPERIOR

STATION/POSITION TIME  TEMP    WIND        PRES    WAVE
                       AIR SEA DIR/SP/G            HT/PER
                 (UTC) (F)     (DEG/KT/KT) (MB)    (FT/S)
W MID LAKE BUOY  0350   36 44  360/ 31/ 37 1022.2R   8/ 6
DEVILS ISLAND    0400   35     360/ 34/ 40 1025.5R
PORT WING        0340   36     350/ 30     1025.7R
SAXON HARBOR     0314   36     360/ 31/ 36 1022.0R
$$

LMZ867-665-643>646-310500-
LAKE MICHIGAN

STATION/POSITION TIME  TEMP    WIND        PRES    WAVE
                       AIR SEA DIR/SP/G            HT/PER
                 (UTC) (F)     (DEG/KT/KT) (MB)    (FT/S)
CHAMBERS ISLAND  0340   43     300/  6/ 12 1015.2F
N MID LAKE BUOY  0350   44 51  300/ 19/ 21 1014.2F   3/ 4
NORTHPORT PIER   0300   43     300/ 12/ 19 1014.9F
KEWAUNEE LAKESHO 0400   44     310/  7/ 13 1014.6F
SHEBOYGAN LAKESH 0400   46 50  310/ 11/ 14 1016.7S
PORT WASHINGTON  0340   48     300/  7/ 13 1016.9S
ATWATER BUOY     0400   49     270/ 12/ 12 1017.5F
MILWAUKEE LAKESH 0400   48     290/ 10/ 14   N/A
S MID LAKE BUOY  0350   50 53  280/ 16/ 19 1016.5F   1/ 3
KENOSHA   LAKESH 0400   47     280/  8/ 11 1016.6F
$$

TC  - TEMPERATURE IN CELSIUS
VSB - VISIBILITY IN STATUTE MILES
WCI - WIND CHILL INDEX
HX  - HEAT INDEX




USA.gov is the U.S. government's official web portal to all federal, state and local government web resources and services.